User: anonymous   Login
Location: Unspecified
(0.0000°N, 0.0000°E)
Time: 18:55:07
(UTC+00:00)
Language:

APRIZESAT 9 - Orbit

View from above orbital plane
View from above orbital plane
View from above satellite
View from above satellite

Ground track
Ground track

The orbit data is extracted from the following two-line orbital elements,

1 40018U 14033J   19341.49317665 -.00000031  00000-0  31202-5 0  9991
2 40018  97.7221 187.0547 0070245 297.3924  62.0148 14.69954889293186
Epoch (UTC): 07 December 2019 11:50:10
Eccentricity: 0.0070245
inclination: 97.7221°
perigee height: 612 km
apogee height: 710 km
right ascension of ascending node: 187.0547°
argument of perigee: 297.3924°
revolutions per day: 14.69954889
mean anomaly at epoch: 62.0148°
orbit number at epoch: 29318

The dashed part of the orbit path shows where the satellite is in the earth's shadow,  

DLR